Notices

What's New in latest Release from April 7th, 2021:

- Updated Glossary, including Speed of Maximum Gust, and Total Hourly Precipitation

- Updated national and regional climate services offices contacts and prices information

- Addition of station inventory lists for 1981-2010, 1971-2000, and 1961-1990 Normals.

If you haven't already, please take our survey and provide feedback about our website: https://eccc.sondage-survey.ca/f/LanguageSelection.aspx?s=442ca660-fcf1-47c0-95a9-59707d6fd709

Hourly Data Report for May 04, 2020

TRENTON A
ONTARIO
Current Station Operator: DND

44°07'00.000" N
77°32'00.000" W
86.30 m
6158875
71621
YTR

Download Data

Hourly Data (May 2020)
Hourly Data Report for May 4, 2020
TIME
LST
Temp Definition
°C
Dew Point Definition
°C
Rel Hum Definition
%
Precip. Amount Definition
mm

Wind Dir Definition
10's deg

Wind Spd Definition
km/h
Visibility Definition
km
Stn Press Definition
kPa
Hmdx Definition


Wind Chill Definition


Weather Definition


00:00 10.0 1.7 56   31 5 24.1 99.67     Mostly Cloudy
01:00 10.0 1.6 56   27 8 24.1 99.67     Cloudy
02:00 9.3 1.9 60   32 8 24.1 99.65     Cloudy
03:00 8.9 2.0 62   32 11 24.1 99.69     Rain Showers
04:00 8.2 2.7 68   34 11 24.1 99.71     Rain Showers
05:00 7.0 2.5 73   34 15 19.3 99.80     Rain Showers
06:00 6.4 3.0 79   36 11 24.1 99.89     Rain Showers
07:00 6.9 2.9 76   34 13 24.1 99.97     Mostly Cloudy
08:00 6.8 1.8 70   34 17 24.1 100.05     Rain Showers
09:00 7.6 1.1 63   36 22 24.1 100.12     Mostly Cloudy
10:00 8.6 1.1 59   35 18 24.1 100.18     Mostly Cloudy
11:00 9.0 1.1 58   33 18 24.1 100.23     Cloudy
12:00 10.2 0.7 52   34 26 24.1 100.26     Mostly Cloudy
13:00 10.7 1.0 51   35 18 24.1 100.28     Mostly Cloudy
14:00 10.9 -0.1 47   32 22 24.1 100.28     Mostly Cloudy
15:00 11.7 -0.3 43   31 13 24.1 100.26     Mostly Cloudy
16:00 12.1 -1.2 39   30 11 24.1 100.23     Mostly Cloudy
17:00 12.2 -1.9 37   31 21 24.1 100.25     Mostly Cloudy
18:00 11.6 -2.7 36   32 21 24.1 100.29     Mostly Cloudy
19:00 10.6 -4.8 32   33 15 24.1 100.35     Mainly Clear
20:00 8.4 -5.8 34   34 13 24.1 100.45     Clear
21:00 6.5 -5.5 40   36 15 24.1 100.56     Clear
22:00 5.1 -6.3 41   34 13 24.1 100.62     Clear
23:00 3.9 -6.8 43   35 9 24.1 100.68     Clear

Notes on Data Quality.

Legend

  • E = Estimated
  • M = Missing
  • NA = Not Available*
  • [empty] = Indicates an unobserved value
Date modified: